Location: Columbia
(38.9520°N, 92.3340°W)
Time: 08:30:39
(UTC-05:00)

Iridium 15 - Visible Passes

Search period start: 31 July 2014 00:00
Search period end: 10 August 2014 00:00
Orbit: 776 x 779 km, 86.4° (Epoch: 30 July)

Date Brightness Start Highest point End Pass type
(mag) Time Alt. Az. Time Alt. Az. Time Alt. Az.
31 Jul 7.9 00:10:48 10° NW 00:14:36 21° W 00:15:14 20° W visible
31 Jul 7.3 21:56:28 10° NNE 22:00:30 22° ENE 22:01:25 21° E visible
31 Jul 7.0 23:36:32 10° NNW 23:41:19 38° W 23:41:54 37° W visible
01 Aug 8.0 21:24:43 10° NE 21:26:38 12° ENE 21:28:06 11° E visible
01 Aug 6.1 23:02:43 10° N 23:07:55 73° W 23:08:34 64° SW visible
02 Aug 6.1 22:29:14 10° N 22:34:23 60° E 22:35:15 52° SE visible
03 Aug 8.4 00:11:49 10° NW 00:14:30 14° WNW 00:15:44 13° W visible
03 Aug 6.8 21:56:05 10° NNE 22:00:44 32° E 22:01:57 29° ESE visible
03 Aug 7.6 23:37:00 10° NNW 23:41:17 26° W 23:42:25 24° WSW visible
04 Aug 7.6 21:23:30 10° NE 21:26:57 18° ENE 21:28:39 15° E visible
04 Aug 6.7 23:02:56 10° NNW 23:07:57 49° W 23:09:08 41° SW visible
05 Aug 5.9 22:29:15 10° N 22:34:30 88° E 22:35:51 51° S visible
06 Aug 6.3 21:55:53 10° N 22:00:55 47° E 22:02:34 35° SE visible
06 Aug 8.2 23:37:43 10° NW 23:41:12 18° W 23:43:03 15° WSW visible
07 Aug 7.2 21:22:55 10° NNE 21:27:13 25° E 21:29:19 20° ESE visible
07 Aug 7.4 23:03:17 10° NNW 23:07:56 34° W 23:09:48 26° WSW visible
08 Aug 7.8 20:50:46 10° NE 20:53:22 14° ENE 20:55:57 10° ESE visible
08 Aug 6.3 22:29:24 10° N 22:34:33 64° W 22:36:34 36° SSW visible
09 Aug 6.0 21:55:50 10° N 22:01:03 69° E 22:03:21 33° SSE visible
09 Aug 8.6 23:38:58 10° NW 23:41:04 12° WNW 23:43:09 10° W visible
